User: anonymous
Location: Unspecified
(0.0000°N, 0.0000°E)
Time: 16:28:41
(UTC+02:00)
Language:

AO-7 - Orbit

View from above orbital plane
View from above orbital plane
View from above satellite
View from above satellite

Ground track
Ground track

The orbit data is extracted from the following two-line orbital elements,

1 07530U 74089B   14112.52317156 -.00000037  00000-0  38758-4 0  9459
2 07530 101.4673 096.1971 0012269 045.5481 067.3810 12.53604505804546
Epoch (UTC): 22 April 2014 12:33:22
Eccentricity: 0.0012269
inclination: 101.4673°
perigee height: 1440 km
apogee height: 1459 km
right ascension of ascending node: 96.1971°
argument of perigee: 45.5481°
revolutions per day: 12.53604505
mean anomaly at epoch: 67.3810°
orbit number at epoch: 80454

The dashed part of the orbit path shows where the satellite is in the earth's shadow,  

DLR